Location: Feigenhofen
(48.4939°N, 10.7793°E)
Time: 16:05:53
(UTC+00:00)

CRYOSAT 2 - Pass Details

Date: 26 May 2022
Orbit: 716 x 722 km, 92.0° (Epoch: 28 June)

Event Time Altitude Azimuth Distance (km) Brightness Sun altitude
Exits shadow 01:36:52 16° 185° (S) 1,841 6.0 -13.4°
Maximum altitude 01:40:48 70° 267° (W) 772 4.4 -13.1°
Drops below altitude 10° 01:45:43 10° 351° (N) 2,223 7.6 -12.6°
Sets 01:48:02 0° 354° (N) 3,149 8.5 -12.4°
